SCP
0 0 -0 -0 -0 -0 -0 -0 -0 0 0 0 0 0 0 0 0 0 0 0 0 0 0 0 0 0 0 0 0 0 0 0 0 0 0 0 0 0 0 0 0 0 0 0 0
-0 -0 0 -0 -0 -0 -0 -0 0 0 0 0 0 0 0 0 0 0 0 0 0 0 0 0 0 0 0 0 0 0 0 0 0 0 0 0 0 0 0 0 0 0 0 0 0
-0 -0 -0 -0 -0 -0 -0 0 0 0 0 0 0 0 0 0 0 0 0 0 0 0 0 0 0 0 0 0 0 0 0 0 0 0 0 0 0 0 0 0 0 0 0 0 0
-0 -0 -0 -0 -0 -0 -0 -0 -0 0 0 0 0 0 0 0 0 0 0 -0 -0 0 0 0 0 0 0 0 0 0 0 0 0 0 0 0 0 0 0 0 0 0 0 0 0
-0 -0 -0 -0 -0 -0 -0 -0 -0 -0 -0 0 0 0 -0 -0 0 0 -0 -0 0 0 0 0 0 0 0 0 0 0 0 0 0 0 0 0 0 0 0 0 0 0 0 0 0
-0 -0 -0 -0 -0 0 0 0 0 0 0 0 0 -0 -0 0 0 0 0 0 0 0 0 0 0 0 0 0 0 0 0 0 0 0 0 0 0 0 0 0 0 0 0 0 0
-0 0 0 0 0 0 0 -0 -0 -0 -0 -0 -0 -0 -0 0 0 0 -0 0 0 0 0 0 0 0 0 0 0 0 0 0 0 0 0 0 0 0 0 0 0 0 0 0 0
0 0 0 0 0 0 0 -0 -0 -0 -0 -0 -0 -0 0 0 0 -0 0 0 0 0 0 0 0 0 0 0 0 0 0 0 0 0 0 0 0 0 0 0 0 0 0 0 0
-0 -0 -0 -0 0 0 0 0 -0 -0 0 0 -0 -0 0 0 0 0 0 0 0 0 0 0 0 0 0 0 0 0 0 0 0 0 0 0 0 0 0 0 0 0 0 0 0
0 -0 -0 -0 -0 -0 0 -0 0 0 0 -0 -0 -0 0 0 0 0 0 -0 0 0 0 0 0 0 0 0 0 0 0 0 0 0 0 0 0 0 0 0 0 0 0 0 0
0 -0 -0 -0 -0 -0 0 0 0 -0 0 0 0 0 0 0 0 0 0 -0 -0 -0 -0 0 0 0 0 0 0 0 0 0 0 0 0 0 0 0 0 0 0 0 0 0 0
-0 -0 -0 -0 -0 -0 -0 0 0 0 0 0 0 -0 0 0 0 -0 0 -0 -0 0 0 0 0 0 0 0 0 0 0 0 0 0 0 0 0 0 0 0 0 0 0 0 0
-0 -0 0 0 -0 -0 0 0 0 0 0 0 0 0 0 0 -0 -0 0 -0 -0 -0 -0 0 0 0 0 0 0 0 0 0 0 0 0 0 0 0 0 0 0 0 0 0 0
-0 -0 0 -0 -0 0 0 0 0 0 0 0 0 0 0 0 -0 0 0 0 -0 -0 0 0 0 0 0 0 0 0 0 0 0 0 0 0 0 0 0 0 0 0 0 0 0
-0 -0 0 -0 -0 0 0 0 0 0 0 0 0 0 0 -0 0 0 0 -0 0 -0 0 0 0 0 0 0 0 0 0 0 0 0 0 0 0 0 0 0 0 0 0 0 0
-0 -0 0 0 0 0 0 0 0 0 0 0 0 0 0 0 0 0 0 0 0 0 0 0 0 -0 0 0 0 0 0 0 0 0 0 0 0 0 0 0 0 0 0 0 0
-0 -0 0 0 0 0 0 0 0 0 0 0 0 0 0 0 0 0 0 0 0 0 0 0 0 0 0 0 0 -0 -0 0 0 0 0 0 0 0 0 0 0 0 0 0 0
-0 -0 0 0 0 0 0 0 0 0 0 0 0 0 0 0 0 0 0 0 0 0 0 0 0 0 0 0 0 0 0 0 0 0 0 0 0 0 0 0 0 0 0 0 0
-0 0 0 0 0 0 0 0 0 0 0 0 0 0 0 0 0 0 0 0 0 0 0 0 0 -0 -0 0 -0 -0 0 -0 0 0 -0 0 0 0 0 0 0 0 0 0 0
0 0 0 0 0 0 0 0 0 0 0 0 0 0 0 0 0 0 0 0 0 0 0 0 0 -0 0 0 0 -0 -0 0 0 0 0 0 0 0 0 0 0 0 0 0 0
0 -0 0 0 0 0 0 0 0 0 0 0 0 0 0 0 0 0 0 0 0 0 0 -0 -0 0 0 0 -0 -0 -0 -0 0 0 0 -0 -0 0 0 0 0 0 0 0 0
0 0 0 0 0 0 0 0 0 0 0 0 0 0 0 0 0 0 0 -0 0 0 -0 0 0 -0 -0 0 -0 -0 0 0 0 0 0 0 0 -0 0 0 0 0 0 0 0
0 0 0 0 0 0 0 0 0 0 0 0 0 0 0 -0 0 0 0 -0 -0 -0 0 0 0 -0 -0 0 0 0 -0 -0 -0 0 0 0 0 -0 0 0 0 0 0 0 0
0 0 0 0 0 0 0 0 0 0 0 0 0 0 0 -0 0 0 0 0 -0 -0 -0 0 -0 0 -0 0 0 -0 -0 0 0 -0 0 0 0 0 0 0 0 0 0 0 0
0 0 0 0 0 0 0 0 0 0 0 0 0 0 0 -0 -0 0 0 0 -0 -0 -0 -0 -0 -0 -0 -0 -0 -0 -0 -0 0 0 0 0 -0 -0 0 0 0 0 0 0 0
0 0 0 0 0 0 0 0 0 0 0 -0 0 0 0 -0 -0 -0 -0 -0 0 -0 0 -0 -0 0 -0 -0 -0 -0 0 -0 0 0 0 0 -0 0 -0 0 0 0 0 0 0
0 0 0 0 0 0 0 0 0 0 0 0 0 0 -0 -0 -0 -0 -0 -0 0 0 -0 -0 -0 -0 -0 0 -0 -0 -0 -0 -0 -0 0 0 0 0 -0 -0 0 0 0 0 0
Wind_Speed_500mb
22 21 21 22 23 24 23 21 21 22 24 25 24 25 25 25 19 19 11 20 24 21 29 20 24 23 35 49 50 40 31 38 42 41 38 42 39 46 41 40 28 22 34 4 22
23 23 23 23 26 25 22 20 20 20 23 25 24 26 29 30 20 3 18 21 11 6 9 21 34 32 44 43 58 46 34 54 41 34 26 30 41 51 47 24 41 27 17 10 21
25 25 25 25 28 27 25 22 20 21 24 28 26 25 28 26 10 10 4 8 16 15 15 22 29 41 51 53 59 61 54 49 41 48 41 37 43 46 48 35 52 37 32 20 21
30 30 29 27 27 27 26 22 20 21 25 27 27 27 28 8 5 5 23 30 26 19 17 21 28 41 49 51 63 52 73 67 64 66 44 37 43 50 59 50 49 47 38 45 22
34 33 31 28 27 27 26 23 21 23 23 24 25 24 16 11 6 13 22 23 16 17 16 21 30 36 48 51 57 63 60 74 71 60 61 52 51 50 60 62 58 53 37 35 34
35 34 33 31 28 26 24 22 23 28 24 24 19 17 14 21 6 11 16 18 16 19 17 19 24 34 48 52 51 67 68 76 70 68 69 54 60 54 67 62 66 64 62 53 53
39 39 39 36 29 25 24 22 26 31 27 22 14 6 13 6 6 14 17 20 22 20 22 19 21 28 28 35 57 66 61 60 53 74 67 62 51 65 77 67 67 71 65 61 61
40 40 41 39 34 26 25 26 31 31 23 11 11 3 14 4 6 13 18 19 16 20 23 26 26 36 45 52 62 47 45 55 68 62 63 59 70 77 78 73 71 74 68 70 69
41 39 39 36 31 25 21 26 24 26 13 6 8 7 6 7 10 19 22 25 25 25 24 26 31 39 38 34 37 41 48 60 64 65 63 55 76 70 94 76 72 79 78 75 71
44 42 41 36 29 23 21 23 24 12 7 3 9 11 10 9 20 27 19 18 23 26 31 31 38 32 33 28 39 46 56 59 65 57 60 63 74 62 81 74 77 73 71 72 73
49 46 43 34 28 21 23 20 8 9 15 25 24 22 14 14 21 17 16 18 17 21 25 25 27 33 38 40 45 48 55 70 62 55 62 60 71 74 62 69 71 73 79 66 59
53 49 42 31 18 9 16 14 9 14 22 27 26 23 19 16 19 17 10 21 21 29 32 33 40 39 40 40 47 53 54 63 62 68 56 56 70 67 65 58 71 79 62 66 62
57 49 35 24 10 10 6 5 10 21 16 3 7 18 15 13 30 30 19 25 28 34 35 39 44 43 46 42 47 50 50 55 62 55 57 66 60 65 62 66 77 85 85 75 69
55 41 25 14 12 11 1 13 18 14 11 19 13 8 12 18 39 15 21 18 30 36 39 32 34 25 30 43 45 53 45 49 53 51 44 64 42 63 62 61 53 68 82 85 83
53 32 11 11 9 13 14 19 19 4 9 10 9 5 15 24 21 10 12 32 28 37 32 38 45 43 38 39 40 49 46 50 54 52 56 66 44 42 50 58 58 57 73 75 65
48 22 4 15 8 11 17 19 5 13 2 6 4 11 23 26 16 18 26 33 49 29 32 43 41 44 44 36 38 35 50 57 55 45 47 61 56 47 44 51 55 59 73 73 66
43 14 6 2 9 16 15 11 13 12 11 6 13 21 26 25 20 12 28 28 18 18 33 42 44 25 35 34 38 39 41 29 36 36 40 49 57 45 29 31 21 32 43 48 42
39 7 9 5 11 15 11 19 10 13 17 18 19 31 27 13 15 17 30 27 18 16 23 21 31 33 16 32 39 29 36 22 36 30 41 52 56 53 57 36 21 6 13 11 19
22 5 6 9 11 14 22 11 20 21 16 20 27 17 17 8 20 27 24 21 13 14 14 23 20 26 40 21 37 49 20 41 52 42 28 30 64 55 70 54 47 32 21 17 7
20 8 6 11 13 13 17 19 16 8 16 17 26 11 25 30 25 21 23 13 10 11 21 33 37 32 21 23 36 42 34 22 22 36 38 32 44 46 29 54 32 30 29 16 11
13 15 1 9 12 21 9 15 17 10 14 14 24 32 28 31 28 32 30 31 15 20 24 36 30 36 24 13 30 31 29 24 34 25 19 29 27 35 47 41 37 29 29 9 4
12 8 5 13 17 8 14 12 8 16 12 16 25 20 21 24 29 36 34 24 22 27 34 31 15 28 43 26 34 28 34 2 16 29 29 30 31 50 31 24 48 30 21 10 12
22 15 10 10 6 12 15 21 11 16 15 13 15 23 24 29 18 24 33 35 31 30 9 15 12 21 33 11 16 7 30 17 17 24 33 21 13 28 42 37 31 28 19 5 19
17 8 4 8 8 15 22 18 12 6 17 20 20 30 27 29 26 22 38 17 30 36 30 24 28 31 31 34 12 18 34 24 19 11 31 34 20 32 22 38 26 10 8 9 24
11 6 7 9 11 22 25 25 21 19 6 15 16 17 20 21 37 40 26 38 43 47 33 17 23 34 40 40 38 32 27 31 35 34 37 42 28 39 49 39 21 21 26 27 27
15 14 18 30 11 16 19 13 17 16 26 31 28 27 28 32 34 47 42 38 14 25 11 12 21 27 38 39 37 32 36 33 36 39 47 47 44 37 35 51 40 34 37 29 22
11 7 9 20 13 6 11 15 24 26 23 15 18 28 34 38 44 59 65 58 33 26 30 20 14 15 27 29 22 27 25 38 35 36 40 43 41 40 34 31 26 32 35 29 23
Wind_Direction_500mb
10 8 4 359 353 346 341 337 339 339 341 346 346 338 330 323 309 319 274 236 229 267 236 246 259 244 229 236 231 233 252 252 247 238 252 275 290 274 244 243 252 231 235 355 139
4 1 358 355 349 345 340 336 341 341 343 348 345 338 336 332 320 262 237 251 246 340 305 260 250 234 231 234 232 226 238 243 253 256 271 232 254 255 257 225 250 205 238 221 183
356 352 350 348 349 347 344 336 333 335 342 343 340 343 341 333 303 138 237 321 315 300 309 265 256 243 240 236 232 230 239 249 254 258 263 257 263 265 264 223 222 222 188 192 173
348 344 341 338 337 339 339 334 331 339 345 343 342 344 342 344 349 187 307 320 337 352 291 271 253 241 240 238 240 246 244 246 253 266 267 252 268 269 269 255 244 220 213 200 196
348 342 335 329 327 328 333 328 328 337 343 339 339 338 349 260 74 311 342 337 355 335 297 270 267 255 246 247 246 241 247 251 252 254 261 258 248 255 257 257 253 242 221 229 218
349 344 338 332 327 323 327 320 321 325 330 332 338 340 328 258 353 334 322 320 309 313 308 286 273 268 282 268 250 253 252 253 251 252 253 252 249 251 249 252 253 248 246 234 237
348 345 341 338 333 325 327 320 318 317 320 326 343 357 292 13 341 322 328 316 308 294 290 289 293 271 275 263 254 262 265 264 256 243 246 244 257 248 248 249 248 246 243 242 239
344 342 338 335 333 329 328 325 320 318 320 326 344 320 287 209 343 340 321 318 314 298 292 281 277 276 267 263 273 280 271 249 244 245 243 228 248 249 247 240 243 249 245 239 235
338 337 335 332 329 326 330 331 331 328 325 332 31 259 191 295 348 329 321 314 305 300 290 270 271 269 271 253 256 247 250 246 249 236 239 238 239 247 250 249 239 238 245 243 239
339 336 334 330 327 328 336 336 327 356 8 315 261 243 242 319 319 317 311 306 315 309 295 253 257 255 247 241 249 254 245 247 256 255 228 233 243 242 248 248 249 257 237 237 235
340 338 335 326 319 328 346 316 296 208 241 285 297 278 286 299 320 323 302 306 270 276 270 280 268 256 261 271 267 269 270 274 265 255 249 255 233 244 235 241 253 238 241 238 236
346 341 339 334 320 342 28 6 9 328 298 277 257 253 266 290 301 313 291 289 300 288 295 277 261 259 262 267 268 272 274 268 267 269 276 261 253 245 239 231 238 249 241 238 239
348 343 344 351 20 54 353 8 333 326 266 289 220 224 242 239 272 293 276 281 285 288 285 281 289 290 281 267 250 253 264 269 270 268 259 263 262 254 245 237 230 241 246 244 238
347 344 352 28 46 342 206 335 331 311 269 133 196 198 232 268 273 238 281 290 290 287 295 299 291 274 283 269 258 266 263 270 270 269 257 246 251 243 244 244 230 235 241 241 243
345 343 355 16 340 333 311 322 311 262 260 119 150 44 266 272 290 265 246 261 275 289 297 289 292 289 277 267 263 268 271 261 262 254 259 253 250 246 241 239 236 238 240 235 237
340 337 325 352 359 323 329 316 315 232 62 171 261 255 303 305 282 286 279 284 277 268 291 288 290 282 267 274 275 286 282 262 251 246 243 243 248 239 230 239 236 223 227 232 235
338 322 239 332 322 321 323 286 252 279 117 92 328 314 308 290 309 315 313 302 304 321 311 318 292 317 249 254 264 256 260 261 245 230 240 251 238 245 221 234 284 244 233 230 235
338 286 255 246 313 319 315 257 289 59 358 359 318 298 269 344 315 297 295 307 116 298 310 330 309 355 350 282 271 235 294 243 249 222 235 232 234 228 248 250 135 283 280 174 210
356 346 249 254 307 317 280 243 353 1 356 328 308 304 320 305 320 311 315 316 345 318 309 319 308 285 289 271 271 265 213 241 265 270 295 287 225 229 226 236 245 238 196 169 223
345 276 210 285 293 296 262 278 302 357 314 308 299 332 318 321 318 314 319 327 280 276 297 298 296 296 319 303 254 263 271 270 286 264 259 268 270 212 191 203 196 189 186 157 224
353 269 184 325 294 249 272 309 329 342 322 321 322 309 308 312 305 300 296 289 325 317 320 296 300 292 235 241 284 245 257 242 251 267 292 264 253 238 199 196 199 194 122 130 320
338 284 348 340 260 256 274 5 338 281 298 286 282 300 292 311 306 302 296 306 311 315 311 318 288 290 285 252 236 252 253 234 250 256 247 254 297 309 135 135 185 118 105 84 343
328 308 338 347 282 308 311 301 259 287 303 294 282 294 297 293 300 292 307 313 317 317 319 339 291 305 292 313 148 228 296 218 252 274 268 279 272 289 119 121 125 128 114 15 345
330 334 330 344 317 320 330 307 295 257 294 299 304 284 286 291 290 278 291 316 322 299 300 309 274 261 277 291 152 266 294 285 280 257 280 260 211 259 159 141 142 132 39 338 322
356 13 355 308 316 328 306 294 287 301 277 285 292 310 322 302 310 296 311 298 301 291 276 236 265 270 273 277 275 268 263 275 274 260 269 282 318 296 310 321 355 359 315 299 308
350 339 338 292 270 297 296 293 310 329 310 302 282 297 304 290 291 292 295 301 280 303 303 264 274 285 284 283 276 270 256 254 261 269 269 269 269 262 244 274 301 302 287 287 297
347 331 322 302 269 230 281 328 320 322 295 290 302 287 289 289 294 292 291 283 262 250 279 283 272 292 279 304 298 272 283 245 242 242 252 276 281 290 276 271 284 291 295 280 282
Wind_Speed_850mb
22 21 21 22 23 24 23 21 21 22 24 25 24 25 25 25 19 19 11 20 24 21 29 20 24 23 35 49 50 40 31 38 42 41 38 42 39 46 41 40 28 22 34 4 22
23 23 23 23 26 25 22 20 20 20 23 25 24 26 29 30 20 3 18 21 11 6 9 21 34 32 44 43 58 46 34 54 41 34 26 30 41 51 47 24 41 27 17 10 21
25 25 25 25 28 27 25 22 20 21 24 28 26 25 28 26 10 10 4 8 16 15 15 22 29 41 51 53 59 61 54 49 41 48 41 37 43 46 48 35 52 37 32 20 21
30 30 29 27 27 27 26 22 20 21 25 27 27 27 28 8 5 5 23 30 26 19 17 21 28 41 49 51 63 52 73 67 64 66 44 37 43 50 59 50 49 47 38 45 22
34 33 31 28 27 27 26 23 21 23 23 24 25 24 16 11 6 13 22 23 16 17 16 21 30 36 48 51 57 63 60 74 71 60 61 52 51 50 60 62 58 53 37 35 34
35 34 33 31 28 26 24 22 23 28 24 24 19 17 14 21 6 11 16 18 16 19 17 19 24 34 48 52 51 67 68 76 70 68 69 54 60 54 67 62 66 64 62 53 53
39 39 39 36 29 25 24 22 26 31 27 22 14 6 13 6 6 14 17 20 22 20 22 19 21 28 28 35 57 66 61 60 53 74 67 62 51 65 77 67 67 71 65 61 61
40 40 41 39 34 26 25 26 31 31 23 11 11 3 14 4 6 13 18 19 16 20 23 26 26 36 45 52 62 47 45 55 68 62 63 59 70 77 78 73 71 74 68 70 69
41 39 39 36 31 25 21 26 24 26 13 6 8 7 6 7 10 19 22 25 25 25 24 26 31 39 38 34 37 41 48 60 64 65 63 55 76 70 94 76 72 79 78 75 71
44 42 41 36 29 23 21 23 24 12 7 3 9 11 10 9 20 27 19 18 23 26 31 31 38 32 33 28 39 46 56 59 65 57 60 63 74 62 81 74 77 73 71 72 73
49 46 43 34 28 21 23 20 8 9 15 25 24 22 14 14 21 17 16 18 17 21 25 25 27 33 38 40 45 48 55 70 62 55 62 60 71 74 62 69 71 73 79 66 59
53 49 42 31 18 9 16 14 9 14 22 27 26 23 19 16 19 17 10 21 21 29 32 33 40 39 40 40 47 53 54 63 62 68 56 56 70 67 65 58 71 79 62 66 62
57 49 35 24 10 10 6 5 10 21 16 3 7 18 15 13 30 30 19 25 28 34 35 39 44 43 46 42 47 50 50 55 62 55 57 66 60 65 62 66 77 85 85 75 69
55 41 25 14 12 11 1 13 18 14 11 19 13 8 12 18 39 15 21 18 30 36 39 32 34 25 30 43 45 53 45 49 53 51 44 64 42 63 62 61 53 68 82 85 83
53 32 11 11 9 13 14 19 19 4 9 10 9 5 15 24 21 10 12 32 28 37 32 38 45 43 38 39 40 49 46 50 54 52 56 66 44 42 50 58 58 57 73 75 65
48 22 4 15 8 11 17 19 5 13 2 6 4 11 23 26 16 18 26 33 49 29 32 43 41 44 44 36 38 35 50 57 55 45 47 61 56 47 44 51 55 59 73 73 66
43 14 6 2 9 16 15 11 13 12 11 6 13 21 26 25 20 12 28 28 18 18 33 42 44 25 35 34 38 39 41 29 36 36 40 49 57 45 29 31 21 32 43 48 42
39 7 9 5 11 15 11 19 10 13 17 18 19 31 27 13 15 17 30 27 18 16 23 21 31 33 16 32 39 29 36 22 36 30 41 52 56 53 57 36 21 6 13 11 19
22 5 6 9 11 14 22 11 20 21 16 20 27 17 17 8 20 27 24 21 13 14 14 23 20 26 40 21 37 49 20 41 52 42 28 30 64 55 70 54 47 32 21 17 7
20 8 6 11 13 13 17 19 16 8 16 17 26 11 25 30 25 21 23 13 10 11 21 33 37 32 21 23 36 42 34 22 22 36 38 32 44 46 29 54 32 30 29 16 11
13 15 1 9 12 21 9 15 17 10 14 14 24 32 28 31 28 32 30 31 15 20 24 36 30 36 24 13 30 31 29 24 34 25 19 29 27 35 47 41 37 29 29 9 4
12 8 5 13 17 8 14 12 8 16 12 16 25 20 21 24 29 36 34 24 22 27 34 31 15 28 43 26 34 28 34 2 16 29 29 30 31 50 31 24 48 30 21 10 12
22 15 10 10 6 12 15 21 11 16 15 13 15 23 24 29 18 24 33 35 31 30 9 15 12 21 33 11 16 7 30 17 17 24 33 21 13 28 42 37 31 28 19 5 19
17 8 4 8 8 15 22 18 12 6 17 20 20 30 27 29 26 22 38 17 30 36 30 24 28 31 31 34 12 18 34 24 19 11 31 34 20 32 22 38 26 10 8 9 24
11 6 7 9 11 22 25 25 21 19 6 15 16 17 20 21 37 40 26 38 43 47 33 17 23 34 40 40 38 32 27 31 35 34 37 42 28 39 49 39 21 21 26 27 27
15 14 18 30 11 16 19 13 17 16 26 31 28 27 28 32 34 47 42 38 14 25 11 12 21 27 38 39 37 32 36 33 36 39 47 47 44 37 35 51 40 34 37 29 22
11 7 9 20 13 6 11 15 24 26 23 15 18 28 34 38 44 59 65 58 33 26 30 20 14 15 27 29 22 27 25 38 35 36 40 43 41 40 34 31 26 32 35 29 23
Wind_Direction_850mb
10 8 4 359 353 346 341 337 339 339 341 346 346 338 330 323 309 319 274 236 229 267 236 246 259 244 229 236 231 233 252 252 247 238 252 275 290 274 244 243 252 231 235 355 139
4 1 358 355 349 345 340 336 341 341 343 348 345 338 336 332 320 262 237 251 246 340 305 260 250 234 231 234 232 226 238 243 253 256 271 232 254 255 257 225 250 205 238 221 183
356 352 350 348 349 347 344 336 333 335 342 343 340 343 341 333 303 138 237 321 315 300 309 265 256 243 240 236 232 230 239 249 254 258 263 257 263 265 264 223 222 222 188 192 173
348 344 341 338 337 339 339 334 331 339 345 343 342 344 342 344 349 187 307 320 337 352 291 271 253 241 240 238 240 246 244 246 253 266 267 252 268 269 269 255 244 220 213 200 196
348 342 335 329 327 328 333 328 328 337 343 339 339 338 349 260 74 311 342 337 355 335 297 270 267 255 246 247 246 241 247 251 252 254 261 258 248 255 257 257 253 242 221 229 218
349 344 338 332 327 323 327 320 321 325 330 332 338 340 328 258 353 334 322 320 309 313 308 286 273 268 282 268 250 253 252 253 251 252 253 252 249 251 249 252 253 248 246 234 237
348 345 341 338 333 325 327 320 318 317 320 326 343 357 292 13 341 322 328 316 308 294 290 289 293 271 275 263 254 262 265 264 256 243 246 244 257 248 248 249 248 246 243 242 239
344 342 338 335 333 329 328 325 320 318 320 326 344 320 287 209 343 340 321 318 314 298 292 281 277 276 267 263 273 280 271 249 244 245 243 228 248 249 247 240 243 249 245 239 235
338 337 335 332 329 326 330 331 331 328 325 332 31 259 191 295 348 329 321 314 305 300 290 270 271 269 271 253 256 247 250 246 249 236 239 238 239 247 250 249 239 238 245 243 239
339 336 334 330 327 328 336 336 327 356 8 315 261 243 242 319 319 317 311 306 315 309 295 253 257 255 247 241 249 254 245 247 256 255 228 233 243 242 248 248 249 257 237 237 235
340 338 335 326 319 328 346 316 296 208 241 285 297 278 286 299 320 323 302 306 270 276 270 280 268 256 261 271 267 269 270 274 265 255 249 255 233 244 235 241 253 238 241 238 236
346 341 339 334 320 342 28 6 9 328 298 277 257 253 266 290 301 313 291 289 300 288 295 277 261 259 262 267 268 272 274 268 267 269 276 261 253 245 239 231 238 249 241 238 239
348 343 344 351 20 54 353 8 333 326 266 289 220 224 242 239 272 293 276 281 285 288 285 281 289 290 281 267 250 253 264 269 270 268 259 263 262 254 245 237 230 241 246 244 238
347 344 352 28 46 342 206 335 331 311 269 133 196 198 232 268 273 238 281 290 290 287 295 299 291 274 283 269 258 266 263 270 270 269 257 246 251 243 244 244 230 235 241 241 243
345 343 355 16 340 333 311 322 311 262 260 119 150 44 266 272 290 265 246 261 275 289 297 289 292 289 277 267 263 268 271 261 262 254 259 253 250 246 241 239 236 238 240 235 237
340 337 325 352 359 323 329 316 315 232 62 171 261 255 303 305 282 286 279 284 277 268 291 288 290 282 267 274 275 286 282 262 251 246 243 243 248 239 230 239 236 223 227 232 235
338 322 239 332 322 321 323 286 252 279 117 92 328 314 308 290 309 315 313 302 304 321 311 318 292 317 249 254 264 256 260 261 245 230 240 251 238 245 221 234 284 244 233 230 235
338 286 255 246 313 319 315 257 289 59 358 359 318 298 269 344 315 297 295 307 116 298 310 330 309 355 350 282 271 235 294 243 249 222 235 232 234 228 248 250 135 283 280 174 210
356 346 249 254 307 317 280 243 353 1 356 328 308 304 320 305 320 311 315 316 345 318 309 319 308 285 289 271 271 265 213 241 265 270 295 287 225 229 226 236 245 238 196 169 223
345 276 210 285 293 296 262 278 302 357 314 308 299 332 318 321 318 314 319 327 280 276 297 298 296 296 319 303 254 263 271 270 286 264 259 268 270 212 191 203 196 189 186 157 224
353 269 184 325 294 249 272 309 329 342 322 321 322 309 308 312 305 300 296 289 325 317 320 296 300 292 235 241 284 245 257 242 251 267 292 264 253 238 199 196 199 194 122 130 320
338 284 348 340 260 256 274 5 338 281 298 286 282 300 292 311 306 302 296 306 311 315 311 318 288 290 285 252 236 252 253 234 250 256 247 254 297 309 135 135 185 118 105 84 343
328 308 338 347 282 308 311 301 259 287 303 294 282 294 297 293 300 292 307 313 317 317 319 339 291 305 292 313 148 228 296 218 252 274 268 279 272 289 119 121 125 128 114 15 345
330 334 330 344 317 320 330 307 295 257 294 299 304 284 286 291 290 278 291 316 322 299 300 309 274 261 277 291 152 266 294 285 280 257 280 260 211 259 159 141 142 132 39 338 322
356 13 355 308 316 328 306 294 287 301 277 285 292 310 322 302 310 296 311 298 301 291 276 236 265 270 273 277 275 268 263 275 274 260 269 282 318 296 310 321 355 359 315 299 308
350 339 338 292 270 297 296 293 310 329 310 302 282 297 304 290 291 292 295 301 280 303 303 264 274 285 284 283 276 270 256 254 261 269 269 269 269 262 244 274 301 302 287 287 297
347 331 322 302 269 230 281 328 320 322 295 290 302 287 289 289 294 292 291 283 262 250 279 283 272 292 279 304 298 272 283 245 242 242 252 276 281 290 276 271 284 291 295 280 282